Reidsville, NC

12:53 PM EDT on May 22, 2017 (GMT -0400)
Reidsville

Weather History for KSIF - February, 2013

Change the Weather History Date:

Sunday, February 10, 2013

  Actual Average (KGSO) Record (KGSO)
Temperature  
Mean Temperature 36 °F -  
Max Temperature 52 °F 48 °F 74 °F (1938)
Min Temperature 20 °F 25 °F 5 °F (1979)
Degree Days  
Heating Degree Days 29    
Moisture  
Dew Point 24 °F    
Average Humidity 65    
Maximum Humidity 97    
Minimum Humidity 28    
Precipitation  
Precipitation 0.04 in - - ()
Sea Level Pressure  
Sea Level Pressure 30.35 in    
Wind  
Wind Speed 1 mph (SSE)    
Max Wind Speed 9 mph    
Max Gust Speed -    
Visibility 10 miles    
Events Rain    
Averages and records for this station are not official NWS values.
T = Trace of Precipitation, MM = Missing Value Source: NWS Daily Summary

Daily Weather History Graph

Daily Weather History Graph

Search for Another Location

Airport or City:

Trip Planner

Search our weather history database for the weather conditions in past years. The results will help you decide how hot, cold, wet, or windy it might be!

Date:

Astronomy

Feb. 10, 2013 Rise Set
Actual Time 7:12 AM EST 5:55 PM EST
Civil Twilight 6:45 AM EST 6:22 PM EST
Nautical Twilight 6:15 AM EST 6:52 PM EST
Astronomical Twilight 5:45 AM EST 7:22 PM EST
Moon 7:03 AM EST (2/10) 6:41 PM EST (2/10)
Length of Visible Light 11h 36m
Length of Day
10h 43m
New Moon, 0% of the Moon is Illuminated
Feb 10
New Moon
Feb 17
First Quarter
Feb 25
Full
Mar 4
Last Quarter
Mar 11
New

Hourly Weather History & Observations

Time (EST) Temp. Windchill Dew Point Humidity Pressure Visibility Wind Dir Wind Speed Gust Speed Precip Events Conditions
12:15 AM 25.5 °F - 21.0 °F 83% 30.36 in 10.0 mi Calm Calm - N/A   Clear
12:35 AM 24.1 °F - 20.3 °F 85% 30.36 in 10.0 mi Calm Calm - N/A   Clear
12:55 AM 23.2 °F - 19.9 °F 87% 30.35 in 10.0 mi Calm Calm - N/A   Clear
1:15 AM 24.4 °F - 20.5 °F 85% 30.36 in 10.0 mi Calm Calm - N/A   Clear
1:35 AM 23.9 °F - 21.4 °F 90% 30.36 in 10.0 mi Calm Calm - N/A   Clear
1:55 AM 25.3 °F - 21.6 °F 86% 30.37 in 10.0 mi Calm Calm - N/A   Clear
2:15 AM 24.3 °F - 20.8 °F 87% 30.38 in 10.0 mi Calm Calm - N/A   Clear
2:35 AM 23.4 °F - 21.0 °F 91% 30.38 in 10.0 mi Calm Calm - N/A   Clear
2:55 AM 21.6 °F - 19.6 °F 92% 30.39 in 10.0 mi Calm Calm - N/A   Clear
3:35 AM 20.8 °F - 18.9 °F 92% 30.39 in 10.0 mi Calm Calm - N/A   Clear
3:55 AM 20.8 °F - 19.4 °F 94% 30.39 in 10.0 mi Calm Calm - N/A   Clear
4:15 AM 21.7 °F - 19.8 °F 92% 30.39 in 10.0 mi Calm Calm - N/A   Clear
4:35 AM 21.0 °F - 19.4 °F 93% 30.39 in 10.0 mi Calm Calm - N/A   Clear
4:55 AM 20.8 °F - 19.2 °F 93% 30.39 in 10.0 mi Calm Calm - N/A   Clear
5:15 AM 22.5 °F - 20.7 °F 93% 30.39 in 10.0 mi Calm Calm - N/A   Clear
5:35 AM 22.5 °F - 20.7 °F 93% 30.40 in 10.0 mi Calm Calm - N/A   Clear
5:55 AM 23.4 °F - 21.6 °F 93% 30.41 in 10.0 mi Calm Calm - N/A   Clear
6:15 AM 24.1 °F - 21.9 °F 91% 30.41 in 10.0 mi Calm Calm - N/A   Clear
6:35 AM 24.3 °F - 22.1 °F 91% 30.42 in 10.0 mi Calm Calm - N/A   Clear
7:15 AM 25.3 °F - 22.6 °F 89% 30.44 in 10.0 mi Calm Calm - N/A   Clear
7:35 AM 25.9 °F - 22.8 °F 88% 30.45 in 10.0 mi Calm Calm - N/A   Clear
7:55 AM 27.7 °F - 22.5 °F 81% 30.46 in 10.0 mi Calm Calm - N/A   Clear
8:15 AM 29.3 °F - 23.2 °F 78% 30.46 in 10.0 mi Calm Calm - N/A   Clear
8:35 AM 30.4 °F - 24.1 °F 77% 30.47 in 10.0 mi Calm Calm - N/A   Clear
8:55 AM 32.0 °F - 22.6 °F 68% 30.47 in 10.0 mi Calm Calm - N/A   Clear
9:15 AM 33.3 °F - 22.3 °F 64% 30.48 in 10.0 mi Calm Calm - N/A   Clear
9:35 AM 34.2 °F - 21.2 °F 59% 30.46 in 10.0 mi Calm Calm - N/A   Clear
9:55 AM 35.6 °F - 22.3 °F 58% 30.47 in 10.0 mi Calm Calm - N/A   Clear
10:15 AM 36.1 °F - 21.9 °F 56% 30.48 in 10.0 mi Calm Calm - N/A   Clear
10:35 AM 38.3 °F - 21.9 °F 52% 30.47 in 10.0 mi Calm Calm - N/A   Clear
10:55 AM 39.9 °F 36.7 °F 20.5 °F 46% 30.46 in 10.0 mi South 4.6 mph - N/A   Clear
11:15 AM 41.9 °F 39.0 °F 19.0 °F 40% 30.45 in 10.0 mi SSE 4.6 mph - N/A   Clear
11:35 AM 43.5 °F 41.9 °F 19.0 °F 38% 30.46 in 10.0 mi South 3.5 mph - N/A   Clear
11:55 AM 44.8 °F 42.4 °F 19.8 °F 37% 30.44 in 10.0 mi South 4.6 mph - N/A   Clear
12:15 PM 45.7 °F - 20.3 °F 37% 30.43 in 10.0 mi Calm Calm - N/A   Clear
12:35 PM 47.1 °F - 20.3 °F 35% 30.40 in 10.0 mi SSE 6.9 mph - N/A   Clear
12:55 PM 47.7 °F - 21.6 °F 36% 30.38 in 10.0 mi South 5.8 mph - N/A   Clear
1:15 PM 48.4 °F - 20.3 °F 33% 30.38 in 10.0 mi SSE 5.8 mph - N/A   Clear
1:35 PM 49.8 °F - 20.5 °F 32% 30.36 in 10.0 mi Calm Calm - N/A   Clear
1:55 PM 50.4 °F - 20.1 °F 30% 30.36 in 10.0 mi SSE 3.5 mph - N/A   Clear
2:15 PM 51.6 °F - 20.7 °F 30% 30.34 in 10.0 mi South 5.8 mph - N/A   Clear
2:35 PM 52.2 °F - 20.7 °F 29% 30.32 in 10.0 mi SSE 5.8 mph - N/A   Clear
2:55 PM 52.7 °F - 20.3 °F 28% 30.30 in 10.0 mi South 8.1 mph - N/A   Clear
3:15 PM 52.7 °F - 20.1 °F 28% 30.30 in 10.0 mi SE 3.5 mph - N/A   Clear
3:35 PM 52.7 °F - 20.7 °F 29% 30.31 in 10.0 mi SSE 5.8 mph - N/A   Clear
3:55 PM 52.2 °F - 19.8 °F 28% 30.31 in 10.0 mi South 8.1 mph - N/A   Clear
4:15 PM 51.6 °F - 19.9 °F 29% 30.30 in 10.0 mi South 9.2 mph - N/A   Clear
4:35 PM 50.9 °F - 21.0 °F 31% 30.30 in 10.0 mi South 5.8 mph - N/A   Clear
4:55 PM 50.0 °F - 20.7 °F 32% 30.29 in 10.0 mi SSE 5.8 mph - N/A   Clear
5:15 PM 49.3 °F - 21.6 °F 34% 30.30 in 10.0 mi South 4.6 mph - N/A   Clear
5:35 PM 48.7 °F - 21.4 °F 34% 30.27 in 10.0 mi SE 3.5 mph - N/A   Clear
5:55 PM 48.2 °F - 22.1 °F 36% 30.27 in 10.0 mi Calm Calm - N/A   Clear
6:15 PM 47.1 °F - 22.1 °F 37% 30.28 in 10.0 mi Calm Calm - N/A   Clear
6:35 PM 46.2 °F - 23.4 °F 41% 30.28 in 10.0 mi Calm Calm - N/A   Mostly Cloudy
6:55 PM 42.3 °F - 25.9 °F 52% 30.29 in 10.0 mi Calm Calm - N/A   Scattered Clouds
7:15 PM 42.6 °F - 26.6 °F 53% 30.29 in 10.0 mi Calm Calm - N/A   Mostly Cloudy
7:35 PM 41.5 °F - 28.2 °F 59% 30.28 in 10.0 mi Calm Calm - N/A   Mostly Cloudy
7:55 PM 41.7 °F - 28.8 °F 60% 30.28 in 10.0 mi Calm Calm - N/A   Scattered Clouds
8:15 PM 41.5 °F - 30.4 °F 65% 30.28 in 10.0 mi Calm Calm - N/A   Mostly Cloudy
8:35 PM 42.8 °F - 30.0 °F 61% 30.29 in 10.0 mi Calm Calm - N/A   Overcast
8:55 PM 43.3 °F - 28.9 °F 57% 30.28 in 7.0 mi Calm Calm - N/A   Overcast
9:15 PM 41.5 °F - 36.5 °F 82% 30.27 in 10.0 mi Calm Calm - N/A Rain Light Rain
9:35 PM 40.5 °F - 37.9 °F 91% 30.28 in 7.0 mi Calm Calm - 0.01 in Rain Rain
9:55 PM 40.1 °F - 38.7 °F 95% 30.27 in 7.0 mi Calm Calm - 0.03 in Rain Rain
10:15 PM 40.1 °F - 39.0 °F 96% 30.24 in 10.0 mi Calm Calm - 0.01 in Rain Light Rain
10:35 PM 40.1 °F - 38.1 °F 93% 30.21 in 10.0 mi Calm Calm - 0.01 in Rain Light Rain
10:55 PM 40.3 °F - 37.8 °F 91% 30.20 in 10.0 mi Calm Calm - 0.01 in   Overcast
11:15 PM 41.4 °F - 37.0 °F 85% 30.20 in 10.0 mi Calm Calm - N/A   Overcast
11:35 PM 40.3 °F - 39.2 °F 96% 30.19 in 10.0 mi Calm Calm - N/A   Overcast
11:55 PM 40.6 °F - 39.7 °F 97% 30.19 in 10.0 mi Calm Calm - N/A   Overcast